Location: Most
(50.5133°N, 13.6207°E)
Time: 18:35:35
(UTC+02:00)

ISS - Pass Details

Date: 21 May 2019
Orbit: 407 x 410 km, 51.6° (Epoch: 23 May)

Event Time Altitude Azimuth Distance (km) Brightness Sun altitude
Rises 21:55:35 0° 239° (WSW) 2,326 0.2 -8.2°
Reaches altitude 10° 21:57:41 10° 235° (SW) 1,468 -0.9 -8.4°
Maximum altitude 22:00:55 56° 157° (SSE) 493 -3.7 -8.8°
Drops below altitude 10° 22:04:10 10° 78° (ENE) 1,476 -1.3 -9.1°
Sets 22:06:17 0° 74° (ENE) 2,339 -0.2 -9.3°
